Theta_e
338 336 336 345 342 342 341 343 346 346 345 344 344 342 342 342 342 342 343 344 343 341 341 341 340 340 341 341 342 342 342 342 343 343 342 342 342 342 343 343 345 345 345 345 346 347 348 347 347 347 347 347 348 348 347 347 348 347 347 346 346 345 345 345 344 343 343 343 343 343 344 345 346 345 345 344 344 342 339 339 338 335 334 336 339
338 335 335 338 344 341 341 342 345 346 346 345 343 341 340 341 344 348 347 344 342 342 341 341 340 340 342 342 343 342 341 341 341 340 340 341 341 342 341 341 344 344 345 345 345 346 346 346 346 346 347 347 347 347 347 346 346 346 345 345 345 345 344 344 343 342 342 342 343 342 342 344 344 343 343 343 343 341 340 339 338 334 333 338 338
337 335 336 338 345 343 342 342 343 346 346 345 342 341 341 341 347 348 347 346 344 344 345 344 343 342 340 340 340 340 341 341 341 341 340 339 339 340 340 340 341 341 343 342 344 344 345 345 346 346 346 346 347 346 346 346 345 345 345 344 344 343 343 342 342 342 341 341 341 341 340 342 341 342 343 342 342 340 339 338 338 337 334 337 337
336 334 334 339 343 344 345 343 346 346 345 344 342 341 342 342 346 347 348 347 347 347 346 347 347 345 344 343 344 344 343 343 342 341 340 340 339 339 339 340 340 340 340 342 343 344 344 345 344 345 346 346 346 346 345 345 344 344 344 343 343 343 342 341 341 341 340 340 339 338 336 333 337 341 342 342 341 340 338 337 337 337 337 337 337
336 334 334 334 334 342 345 345 346 346 346 343 341 340 338 341 346 346 347 347 345 345 345 345 346 346 345 345 344 340 339 341 341 341 341 341 340 339 340 340 340 340 339 342 343 344 344 344 345 346 345 345 344 344 344 344 343 343 343 342 342 342 341 341 340 339 339 338 337 335 332 333 334 339 341 341 339 337 337 336 336 336 335 335 336
335 334 333 331 333 336 345 346 345 346 346 343 340 338 338 339 340 347 347 346 345 345 345 344 344 343 342 340 341 341 341 340 340 339 340 339 339 340 340 340 340 339 340 342 344 343 343 344 344 346 344 344 343 343 343 344 343 342 342 342 341 341 340 339 338 337 337 336 334 331 330 332 334 336 341 339 337 336 335 334 334 336 335 334 333
335 333 333 331 332 336 343 345 345 346 345 342 341 340 341 341 341 341 344 345 344 344 344 343 342 341 337 336 338 339 338 339 340 339 339 339 338 338 339 339 340 340 340 340 343 343 342 343 343 344 344 343 344 343 343 343 342 342 342 341 341 340 339 339 338 336 335 331 328 328 329 329 329 330 338 339 339 337 334 333 333 333 333 333 333
335 335 333 330 331 338 343 346 345 346 344 342 341 341 340 339 339 341 341 342 342 341 342 341 339 338 338 339 338 336 339 338 336 337 338 338 340 340 340 340 341 340 340 340 340 341 341 342 342 342 343 343 343 343 343 343 342 341 341 341 340 339 338 338 337 336 335 329 328 328 328 328 328 328 334 335 334 334 334 334 333 332 331 331 331
334 334 333 330 332 340 341 344 345 346 345 345 341 341 340 339 336 339 342 341 340 340 340 340 340 340 342 342 341 341 343 342 343 343 343 342 342 342 342 341 341 341 341 340 341 341 341 343 343 342 343 343 343 342 342 343 342 341 341 340 339 338 337 336 335 333 330 329 328 329 328 328 328 328 333 334 334 334 332 332 333 329 329 329 328
334 333 333 331 332 339 341 343 344 345 345 346 346 342 341 339 339 340 339 339 340 343 342 342 343 343 343 343 343 344 344 343 343 343 343 343 343 343 342 342 342 341 341 341 341 341 342 343 342 342 343 343 342 341 341 342 342 341 340 339 338 337 335 334 332 330 326 326 325 327 332 335 327 329 333 335 334 331 329 331 333 332 330 326 327
334 333 333 333 332 339 343 344 345 345 345 346 346 342 340 339 339 339 338 338 339 342 344 344 344 344 344 343 342 342 342 342 342 341 341 341 341 341 340 340 340 340 340 340 341 341 342 342 342 342 342 342 341 340 340 340 340 340 339 338 337 336 334 332 329 325 325 325 324 324 328 333 326 326 334 334 333 329 330 330 329 326 327 330 331
334 333 333 333 340 339 342 343 345 345 345 345 345 342 340 339 339 339 338 338 342 345 345 344 343 341 340 339 339 340 339 339 340 340 340 340 340 339 339 340 339 340 339 339 340 340 341 341 342 341 341 340 340 339 339 340 339 338 337 336 335 334 332 330 325 324 323 323 324 324 322 323 324 328 332 331 330 329 330 331 331 332 332 331 331
335 334 333 332 332 339 340 343 344 345 345 345 345 343 341 340 339 339 338 338 342 343 343 342 341 339 338 337 338 338 338 339 340 339 340 339 339 340 340 339 339 339 339 339 339 340 341 341 341 340 340 340 339 339 338 338 338 338 337 335 334 333 331 328 323 323 322 321 321 321 321 322 324 329 330 330 330 331 332 331 331 330 330 327 324
335 333 333 335 334 341 338 339 341 344 345 345 345 343 341 340 339 338 337 336 337 339 339 338 337 337 337 337 338 339 339 339 340 340 340 339 339 339 339 339 338 339 338 338 339 338 339 341 340 340 340 339 339 339 338 338 337 336 335 334 332 331 328 327 326 321 321 320 321 320 318 321 322 329 329 329 330 330 329 329 328 326 324 323 326
335 334 333 336 336 335 340 337 340 341 344 345 344 342 341 340 339 338 337 337 337 337 337 337 336 336 336 337 339 339 339 339 339 339 339 339 339 338 338 338 338 339 338 338 338 338 338 339 340 339 338 337 337 337 337 337 336 335 333 332 331 329 326 321 321 319 320 321 318 318 317 320 330 330 330 328 327 327 327 326 324 324 328 329 328
336 335 335 335 333 333 334 339 335 336 340 342 342 342 341 341 340 338 338 337 336 336 337 336 340 342 342 338 339 339 339 338 338 338 339 338 338 338 338 338 338 338 338 338 338 338 338 339 339 338 336 336 335 335 335 335 335 334 332 331 329 328 325 322 319 317 318 318 317 318 317 321 328 328 328 328 328 327 326 329 330 327 326 326 326
336 336 337 336 332 331 333 334 332 333 333 335 337 338 340 341 341 340 340 339 341 339 337 338 341 341 342 342 342 341 339 339 340 340 340 338 338 338 338 338 338 337 338 338 338 338 338 338 338 337 336 335 334 334 334 334 333 332 331 329 327 326 323 321 318 315 316 318 317 317 318 322 326 328 329 327 327 327 326 327 327 324 322 325 324
336 337 336 336 333 332 331 330 330 331 330 332 333 336 337 340 339 339 341 341 342 342 341 341 340 340 339 339 340 341 340 340 339 338 338 338 338 337 338 337 337 338 337 337 337 337 337 337 337 336 335 334 333 332 333 332 331 330 330 328 327 325 322 320 315 315 316 319 314 319 318 330 330 329 328 327 327 325 324 323 323 325 324 323 321
336 336 336 336 336 334 332 330 328 328 328 329 329 333 333 336 337 338 338 339 339 338 338 336 336 336 336 336 336 335 335 335 335 335 335 335 334 334 336 336 336 336 336 336 336 336 336 336 335 335 334 334 332 332 332 331 330 329 328 326 323 320 319 317 313 312 313 314 314 315 316 329 329 328 329 327 326 325 324 324 326 324 321 323 323
334 333 334 336 337 336 334 332 328 328 327 327 328 329 331 331 334 334 334 334 335 335 333 332 330 330 330 330 329 328 328 328 329 330 331 333 332 329 332 334 335 335 335 335 335 335 335 334 334 334 334 333 332 331 331 330 330 328 326 324 321 318 314 312 311 312 312 316 317 314 324 331 327 325 326 327 326 325 325 327 325 324 322 325 323
333 333 333 334 336 335 334 333 331 328 328 329 328 328 330 329 330 329 330 330 331 331 330 325 323 323 323 323 325 325 324 325 325 325 325 325 324 326 330 335 335 334 334 334 334 334 334 334 334 334 333 330 326 325 326 328 328 327 324 321 317 314 312 312 311 314 313 313 314 313 330 330 328 329 330 327 325 324 324 326 325 323 323 323 322
330 330 332 334 334 334 334 334 333 331 330 331 331 330 327 329 328 327 325 326 325 324 323 322 325 320 320 322 322 323 323 322 323 328 323 323 325 325 328 332 334 333 334 333 333 334 334 334 334 333 332 329 321 314 314 318 322 323 320 317 313 311 311 312 312 311 313 313 315 322 331 327 326 328 328 326 325 323 323 323 323 321 322 322 322
328 330 331 332 334 333 334 333 334 333 331 331 330 329 329 325 325 326 324 323 324 321 320 321 318 319 317 319 320 322 321 320 322 323 323 322 324 324 327 329 331 330 332 333 333 333 333 333 333 332 330 322 314 312 312 310 311 316 315 313 311 311 311 311 311 311 312 313 313 325 329 326 325 325 327 327 324 323 321 322 322 322 322 320 321
329 330 330 333 334 333 333 333 333 333 332 332 330 329 328 324 325 325 324 323 321 319 318 317 317 317 317 317 318 318 319 319 325 325 326 321 321 323 324 325 327 327 328 326 328 329 330 330 329 325 319 315 313 312 312 311 310 309 310 311 311 310 310 310 310 310 310 314 312 324 328 326 325 324 325 326 324 324 324 323 321 322 319 321 320
331 332 331 332 333 333 333 333 334 333 333 332 330 329 328 324 323 324 324 322 322 320 319 318 316 316 316 318 317 317 317 317 317 318 319 318 317 318 319 318 317 317 319 314 313 313 313 314 311 311 312 312 313 314 313 314 312 310 311 311 311 311 310 309 310 310 310 311 312 322 325 326 325 326 325 325 325 323 322 322 321 320 319 321 320
332 330 331 332 333 334 333 333 333 333 333 332 331 330 328 325 324 324 324 323 323 321 321 320 320 319 318 317 318 318 315 316 316 315 315 316 317 316 315 314 314 314 313 312 312 311 312 310 310 313 311 312 312 312 310 310 314 313 309 311 312 311 310 310 310 310 310 309 311 321 324 327 326 328 329 325 325 324 322 321 322 321 320 322 321
329 330 332 333 334 334 333 333 332 333 333 333 332 330 329 326 324 324 324 324 322 322 321 320 321 320 319 318 318 317 317 316 315 315 316 314 316 315 314 313 313 313 314 313 310 309 309 309 308 309 309 310 313 311 309 309 309 309 309 311 310 310 310 311 310 310 310 310 312 318 322 328 326 327 327 325 323 324 323 322 322 322 321 321 321
328 329 331 333 333 334 334 333 331 332 333 333 331 330 330 328 326 324 324 323 323 323 322 322 322 322 320 320 319 319 319 316 316 314 315 313 316 314 313 313 313 313 313 312 312 310 310 309 309 309 309 307 309 311 309 309 307 308 309 308 309 309 309 310 311 311 309 311 310 314 319 322 325 326 327 326 326 326 325 324 323 324 323 322 321
326 327 329 332 333 334 335 333 333 332 333 333 330 330 330 329 327 325 325 323 323 323 323 322 322 322 321 320 319 319 317 318 317 317 314 316 314 313 313 314 313 312 312 312 311 310 310 310 309 309 307 308 306 310 309 310 308 307 309 308 308 308 308 310 311 310 310 310 311 312 317 320 323 326 327 327 327 327 326 326 325 325 324 324 324
327 327 327 329 331 333 334 334 334 333 333 333 330 328 328 328 327 326 326 323 324 323 321 321 321 321 321 320 320 320 320 319 318 315 316 316 314 312 313 313 314 313 312 312 312 311 311 309 309 308 308 309 308 310 307 310 310 309 307 308 307 309 307 309 311 312 312 311 311 311 314 317 321 325 326 327 327 328 328 328 329 329 326 326 326
326 326 327 328 329 331 332 333 333 332 334 333 331 328 327 327 326 326 325 324 324 323 322 323 320 321 322 320 320 320 320 319 319 317 317 315 315 314 315 312 312 312 313 315 311 311 311 311 312 311 311 309 310 308 308 310 308 309 306 306 310 307 309 308 309 311 311 311 311 310 311 315 318 321 326 327 327 328 329 329 329 330 329 329 329
325 326 327 327 327 329 331 332 333 332 333 334 332 329 327 327 326 326 325 324 324 323 322 323 321 321 321 321 319 319 319 319 319 317 317 316 315 315 315 313 315 312 313 313 312 312 312 311 309 309 308 308 308 308 306 308 310 310 309 308 306 308 308 308 308 310 311 311 310 311 311 312 314 317 320 324 327 328 328 329 329 330 330 329 329
325 327 327 326 327 328 330 331 333 332 332 333 333 330 328 328 327 327 326 325 324 323 322 323 323 322 321 321 320 319 318 319 318 318 316 316 315 316 314 314 315 315 314 313 311 310 310 309 309 309 308 308 307 311 307 306 307 310 309 310 308 309 309 307 309 308 309 311 311 311 311 311 311 313 315 318 322 326 328 329 328 329 329 330 330
325 325 326 326 328 329 330 331 332 332 331 332 332 331 329 328 328 328 327 326 324 324 322 323 323 322 322 321 321 319 318 318 318 316 316 316 316 315 315 315 314 314 313 312 311 310 310 308 310 308 310 308 309 310 306 310 308 305 307 309 307 309 309 309 309 309 308 310 310 310 311 311 311 311 312 315 317 320 324 327 328 328 328 329 329
324 324 325 327 327 328 329 331 329 331 330 331 330 331 329 328 328 328 327 326 325 324 324 323 322 322 322 321 321 320 318 318 318 318 316 317 315 314 313 316 314 311 313 312 313 310 309 312 308 311 309 307 307 308 307 309 308 309 309 308 309 308 307 309 309 308 308 309 308 308 309 310 311 311 311 312 312 314 318 322 326 328 329 329 329
324 324 325 326 326 327 328 330 328 330 330 331 330 330 330 329 328 325 328 326 326 325 324 324 323 322 321 321 321 320 319 318 317 316 316 316 316 316 315 314 313 313 313 313 315 315 313 312 312 313 313 314 313 313 309 310 311 311 311 309 309 308 310 309 309 308 309 308 309 308 308 308 309 310 310 312 313 312 314 317 320 323 325 327 328
325 324 324 324 325 326 326 329 328 329 330 330 330 329 329 328 327 327 328 326 326 326 325 324 323 322 321 321 321 321 321 320 318 316 317 316 314 317 315 318 319 318 317 316 315 317 315 315 315 314 314 314 312 312 313 312 313 313 312 311 311 310 310 311 310 309 308 308 309 310 310 309 308 307 309 311 312 311 311 313 316 318 319 320 323
324 324 324 324 325 326 326 328 329 329 330 330 329 329 328 328 326 326 324 327 326 326 326 325 324 323 322 322 321 322 324 323 321 320 320 319 319 319 319 321 321 320 318 317 317 317 315 314 315 312 311 311 311 312 312 312 311 311 312 312 311 309 309 308 307 304 305 308 310 311 312 311 309 308 308 308 309 309 308 310 312 312 312 314 318
324 324 324 324 325 325 326 325 327 328 329 329 328 328 327 326 325 325 324 325 325 326 326 325 325 325 325 325 324 324 324 324 324 323 323 321 320 319 321 322 322 320 319 318 317 316 314 313 313 313 310 312 312 311 311 310 310 309 309 310 308 307 306 303 303 302 304 306 309 311 310 310 309 308 308 308 309 309 308 308 307 308 308 311 314
324 324 323 323 324 324 325 326 326 328 328 328 327 326 325 324 324 320 322 323 324 324 324 326 326 327 328 328 327 327 325 325 325 325 325 323 323 321 320 319 319 320 319 318 317 315 314 312 312 312 312 312 309 310 311 311 310 307 307 307 306 305 304 304 303 303 304 306 307 307 307 308 306 307 306 306 307 307 308 308 307 308 307 308 311
322 323 323 323 323 324 324 325 326 327 327 326 325 326 325 324 324 325 325 323 323 322 323 324 325 328 329 329 328 327 327 326 326 326 325 323 324 323 322 320 319 319 319 319 319 317 316 314 311 309 311 311 309 308 306 308 309 309 310 308 307 306 305 305 306 306 306 305 302 302 303 304 304 303 305 305 304 304 306 307 307 307 307 307 307
321 322 322 323 324 324 324 325 326 326 327 328 327 326 327 327 326 325 324 322 322 322 324 324 325 323 325 328 328 328 328 327 326 326 326 325 324 323 321 321 320 319 319 318 316 312 313 312 310 308 306 311 310 308 306 307 305 307 308 307 306 308 308 304 305 305 304 304 304 303 303 303 303 304 305 304 304 303 303 304 304 304 304 305 305
322 321 323 323 323 324 324 325 325 326 327 327 327 326 327 326 326 322 325 317 316 320 322 321 322 323 323 324 325 327 328 328 327 325 326 326 325 324 323 323 322 320 317 317 317 315 315 314 312 312 312 309 310 308 306 310 310 305 305 304 304 302 302 301 296 299 303 303 302 301 302 301 303 304 304 303 302 303 303 302 301 301 302 302 303
321 321 322 322 323 323 324 325 325 325 327 327 325 327 326 324 320 319 321 323 319 313 318 315 319 320 321 320 322 323 324 326 327 326 325 326 325 324 323 321 320 320 320 319 316 316 315 313 311 311 313 312 309 309 308 308 310 308 306 303 301 300 302 302 297 302 299 301 299 300 299 301 302 303 302 301 302 301 300 300 299 300 300 301 302
320 321 322 322 324 323 323 324 325 325 326 325 324 324 320 317 315 314 315 316 314 314 315 318 319 319 320 320 323 322 321 322 323 324 323 325 325 325 324 323 322 321 319 318 317 318 318 317 315 314 313 314 313 309 304 304 306 311 311 304 303 299 301 303 304 309 301 303 301 300 300 299 300 300 300 301 301 300 299 299 299 299 299 301 302
320 322 323 323 323 323 323 323 324 324 325 325 324 323 322 322 319 321 321 321 322 319 320 322 320 320 322 320 318 319 321 322 321 322 323 323 325 325 325 324 322 321 318 318 318 317 318 317 316 316 314 313 314 308 306 303 305 307 309 311 310 308 306 304 305 302 305 303 306 299 300 298 297 298 299 300 300 300 299 299 300 300 300 300 301
320 321 322 322 323 324 323 323 324 324 324 323 323 321 322 322 322 323 324 323 323 322 316 314 319 318 317 318 320 317 319 322 322 323 324 324 325 325 325 324 323 322 319 319 319 319 319 318 316 315 315 314 309 311 312 308 304 306 306 307 307 307 306 304 302 303 301 303 304 300 301 302 302 299 297 299 300 299 300 300 299 300 300 300 300
318 318 320 320 321 322 322 322 322 321 322 322 321 322 323 322 321 321 320 321 321 320 313 312 309 311 315 316 314 316 318 320 322 322 324 325 324 324 323 322 322 322 320 320 320 320 319 316 314 314 313 312 312 312 312 309 309 308 305 305 305 306 306 305 305 303 300 297 301 305 306 308 305 304 302 301 300 300 300 300 300 299 299 299 299
316 317 318 319 320 321 320 320 321 320 319 319 320 321 321 322 322 321 319 317 317 314 309 306 312 307 312 308 311 314 316 318 320 322 323 324 322 323 323 323 322 321 317 318 317 317 316 315 313 312 312 312 312 312 311 312 310 311 306 304 303 304 304 304 303 302 299 299 301 301 302 302 301 302 303 301 301 301 300 300 300 299 299 299 299
315 314 315 315 317 318 317 317 319 319 318 318 319 320 321 319 320 319 319 316 310 307 307 308 309 308 313 310 309 311 311 312 314 315 317 318 320 319 319 319 319 317 313 316 316 315 314 314 313 312 312 311 312 312 311 311 310 309 309 307 304 303 302 301 300 300 300 300 298 299 301 301 301 303 305 303 301 301 301 301 299 299 299 299 299
307 308 311 313 314 315 316 317 318 318 317 318 318 319 319 319 321 319 319 316 312 312 309 304 304 305 311 307 305 307 306 308 309 309 312 314 316 316 318 318 316 312 313 315 314 314 314 313 312 310 309 310 310 310 309 309 309 309 309 308 308 307 306 303 304 302 300 297 299 301 302 303 303 302 303 304 304 303 303 301 300 300 300 300 299
Wind_Speed
1 4 1 4 7 7 7 9 9 11 12 12 10 10 12 11 11 12 14 15 14 13 13 14 15 14 15 16 17 17 17 17 17 17 18 17 16 15 15 16 18 17 17 18 18 18 19 20 19 19 19 19 20 20 21 20 20 20 20 20 20 20 20 20 20 20 20 20 20 19 19 19 19 19 19 19 19 18 15 17 14 10 9 13 18
4 2 1 2 6 8 8 10 10 11 12 11 10 11 11 10 12 13 13 14 14 14 14 15 15 15 16 16 16 16 17 17 17 17 17 17 16 16 16 16 17 17 17 17 18 18 19 19 19 19 18 19 20 20 20 20 20 20 20 19 20 19 20 20 19 19 18 18 19 20 20 19 19 19 19 19 19 19 15 17 17 9 7 16 18
4 3 1 1 6 7 6 8 10 13 11 10 11 11 10 10 13 13 11 13 13 13 13 13 15 15 15 15 16 16 17 18 18 18 18 17 17 16 16 16 16 16 17 17 17 18 18 18 18 18 18 19 19 19 19 19 19 20 20 20 20 20 19 20 20 19 17 17 16 16 17 19 18 19 19 19 19 19 16 18 18 17 10 18 16
6 2 2 3 3 2 5 9 10 13 12 10 11 11 10 9 13 14 14 13 14 16 14 14 15 17 16 16 16 17 17 16 17 17 17 17 18 17 16 16 16 15 16 17 17 18 18 19 18 18 18 18 17 18 18 18 18 19 19 19 18 19 20 20 19 18 17 16 16 14 7 6 11 18 19 18 19 18 16 17 17 18 18 17 18
6 3 3 3 1 5 7 8 10 11 11 10 10 10 8 10 15 15 14 14 14 16 15 15 17 17 16 16 16 15 15 16 16 17 17 16 16 17 16 16 16 15 16 17 18 18 19 18 18 18 17 18 17 17 18 18 18 18 18 18 18 18 18 17 17 16 15 14 12 9 7 7 6 16 17 18 18 16 16 17 16 16 17 18 17
5 3 3 3 2 2 7 9 11 12 10 11 12 11 9 10 11 14 14 14 14 14 14 15 15 15 15 15 15 15 15 15 15 16 16 16 16 16 16 16 16 15 16 17 18 18 18 17 17 17 18 17 16 17 17 18 18 18 18 17 18 17 17 16 15 15 14 13 11 6 6 5 4 7 18 17 16 14 16 16 16 15 16 16 16
7 4 4 3 2 1 5 9 11 11 11 12 12 11 11 11 11 12 14 15 14 13 13 14 13 14 14 12 14 15 14 15 16 16 16 16 16 16 16 16 16 15 15 16 17 17 17 17 17 17 17 16 16 17 17 17 18 17 17 17 18 17 16 15 14 13 12 8 6 6 6 6 5 4 17 16 16 16 17 16 15 15 15 15 15
6 5 4 3 2 1 4 9 11 11 12 13 11 11 12 10 9 11 12 12 13 13 14 14 13 12 12 13 14 13 15 15 14 15 15 16 15 15 15 15 16 15 15 15 16 16 16 16 16 16 16 16 16 16 16 17 17 17 17 17 17 16 16 15 14 13 12 7 6 6 6 6 5 4 14 16 17 17 16 16 15 15 15 15 11
6 5 4 3 2 5 5 7 9 11 9 12 10 12 11 11 8 10 13 12 11 12 13 14 14 13 13 13 13 14 14 15 15 15 15 15 16 16 15 15 16 16 15 15 15 15 16 15 15 16 17 17 16 16 17 16 17 17 17 17 16 16 15 14 13 11 7 6 6 6 6 5 5 5 12 15 15 16 15 10 10 13 12 12 11
6 5 4 3 4 6 5 6 10 11 11 12 9 10 12 11 9 11 11 11 11 12 14 13 13 12 13 14 14 14 14 14 15 15 15 15 15 15 15 15 15 15 15 15 16 15 16 17 16 17 17 16 16 16 16 16 16 16 16 16 16 15 14 13 12 8 6 6 6 6 6 7 4 5 12 14 15 15 12 6 6 7 9 10 12
7 5 4 4 4 6 6 5 7 11 12 11 9 10 12 11 9 10 11 10 11 12 12 13 13 13 13 14 14 15 14 13 13 14 14 14 14 14 14 14 14 14 14 15 15 15 15 16 16 17 17 16 15 15 15 16 16 15 16 15 15 14 13 12 9 6 6 6 6 5 6 9 4 4 12 14 14 13 8 7 9 9 10 14 16
7 5 4 4 6 7 6 4 7 11 11 11 10 9 12 11 10 11 11 11 12 14 14 13 14 14 13 13 13 13 13 13 12 13 13 13 13 13 14 14 14 14 14 13 14 15 15 16 16 16 16 16 16 16 15 15 15 15 15 15 14 13 11 10 6 6 5 6 5 5 5 4 5 8 15 13 13 10 12 14 16 15 16 15 14
7 6 5 3 4 7 6 6 8 9 11 11 9 9 10 12 11 11 10 10 13 13 13 14 13 12 12 12 12 12 12 13 12 13 13 13 13 14 13 14 14 13 13 13 13 13 14 15 16 15 15 15 15 15 14 13 14 14 14 13 12 11 10 9 5 6 5 5 5 5 5 4 4 11 11 10 12 13 15 12 13 14 14 14 9
9 6 5 4 4 8 6 5 6 9 10 10 9 9 10 11 12 11 10 8 9 12 12 12 11 12 11 12 12 12 12 12 13 12 12 12 12 13 13 13 13 13 12 12 12 13 14 15 15 15 15 14 14 14 13 13 12 12 12 11 10 10 8 6 5 4 5 4 4 4 4 3 0 9 11 11 14 13 11 11 13 11 7 7 11
10 8 6 5 4 4 7 5 6 8 9 9 7 9 11 11 11 11 11 11 10 10 11 11 11 11 11 12 13 12 12 12 12 12 12 12 12 13 13 12 13 13 13 12 12 12 12 13 14 15 15 15 14 13 12 11 11 10 10 10 9 8 7 5 4 4 4 4 3 4 3 2 10 13 12 11 10 10 9 9 6 8 16 15 13
9 8 6 5 4 4 4 5 6 7 8 8 7 6 10 10 9 11 11 11 10 10 10 12 13 12 11 10 13 13 12 12 11 11 10 11 11 11 11 12 12 12 12 12 11 11 12 11 12 12 14 14 14 13 12 11 10 9 9 9 8 7 7 5 5 3 4 4 3 3 3 2 10 11 10 11 12 9 7 12 16 13 10 11 11
8 7 8 7 5 4 4 3 4 7 7 7 7 6 9 9 8 8 9 10 8 7 9 11 13 12 12 12 12 12 11 10 10 9 8 11 11 10 10 11 11 11 11 11 11 11 9 9 10 11 11 13 13 13 11 10 9 8 8 7 7 6 6 6 5 3 4 3 3 3 4 3 4 11 15 10 9 8 10 10 12 12 5 8 9
7 8 9 7 5 4 4 3 4 4 4 6 8 8 8 8 8 7 9 10 8 10 11 12 11 10 10 10 10 11 11 11 11 11 11 10 9 9 9 11 11 11 11 11 10 9 7 8 8 9 10 11 12 12 11 10 9 8 8 7 6 6 7 6 4 4 3 3 3 2 3 3 7 12 9 9 10 8 6 6 4 8 13 12 6
8 8 7 8 7 5 4 4 3 4 4 4 4 5 8 8 8 8 9 9 9 10 10 11 10 9 10 10 10 10 9 10 10 10 9 9 9 8 8 8 10 10 10 9 9 7 7 7 7 8 8 9 10 11 10 9 8 8 7 6 6 6 7 5 3 3 3 3 2 3 2 4 6 8 10 9 8 7 6 5 10 10 4 7 8
7 8 7 6 7 6 5 4 4 4 4 4 4 4 6 8 8 9 9 9 9 10 10 10 10 10 10 10 10 8 8 7 10 8 9 8 8 6 7 7 9 9 9 9 8 6 6 6 6 6 8 9 9 9 9 9 7 7 5 6 5 5 4 3 3 3 2 1 2 4 6 8 7 4 5 9 7 5 6 8 8 10 5 9 4
5 7 7 7 8 7 7 5 4 4 4 4 3 4 5 8 7 8 9 8 8 9 9 10 9 9 8 8 8 6 5 5 6 5 7 5 6 6 6 6 7 8 8 9 7 6 5 5 5 6 8 8 7 8 8 9 7 5 5 5 5 3 2 3 3 2 1 1 2 2 5 8 7 10 13 7 7 5 4 6 7 5 6 8 6
7 6 6 7 7 7 8 7 5 5 5 4 4 3 3 5 5 4 4 5 6 7 6 5 6 4 8 6 4 4 4 4 4 5 4 4 5 8 8 7 6 5 6 8 8 6 4 4 4 6 7 7 7 4 4 6 7 5 4 5 3 2 1 1 3 1 1 1 1 4 5 3 6 5 4 6 7 6 4 5 4 2 4 4 5
8 6 6 9 7 7 7 8 7 6 5 5 4 4 4 3 4 4 4 5 4 4 4 4 4 4 4 4 4 4 4 3 4 4 4 5 5 7 7 7 6 6 5 4 5 4 4 4 4 5 6 6 4 3 3 3 3 5 4 2 2 2 1 1 1 1 0 0 1 2 2 3 3 5 4 4 4 1 0 2 5 6 7 2 4
9 8 7 7 6 7 9 7 8 7 5 5 4 4 3 3 4 4 4 4 4 3 3 3 3 4 3 3 3 3 3 3 4 6 5 3 3 5 6 6 6 6 6 4 5 5 5 4 5 5 4 3 3 3 3 3 2 3 2 1 1 1 2 2 2 1 1 1 1 3 4 2 2 2 2 3 2 5 5 5 1 4 3 3 3
8 7 6 8 9 9 8 8 7 7 7 6 5 5 5 4 3 4 4 4 4 3 3 3 3 3 3 3 3 3 2 2 3 3 3 3 3 3 3 2 2 2 3 2 1 1 2 2 2 3 2 3 4 4 4 4 3 2 1 1 1 1 1 2 2 1 2 1 2 5 4 4 1 3 1 1 0 1 2 2 1 3 3 2 3
6 8 9 8 9 8 8 7 8 9 7 7 6 6 6 5 5 5 4 4 4 4 4 4 4 4 3 3 3 4 2 2 2 3 2 2 3 2 2 2 1 2 1 1 0 0 1 1 1 2 4 3 3 3 3 2 4 3 1 1 3 2 2 3 2 3 2 2 3 5 5 4 6 8 9 3 5 2 0 3 3 3 5 10 1
7 8 8 7 8 8 8 7 7 7 8 6 4 5 5 5 5 5 5 5 4 4 5 5 5 4 4 4 5 4 3 3 2 2 3 2 3 2 2 1 2 1 0 1 1 1 1 1 1 2 3 4 5 4 4 3 1 2 3 0 1 2 2 4 3 3 3 3 4 6 6 5 5 6 8 2 3 4 4 5 4 4 5 5 4
8 9 8 8 8 10 9 8 7 7 6 7 7 7 5 5 5 5 5 5 5 5 5 5 4 5 4 5 4 5 5 4 3 3 3 2 3 3 1 1 1 1 0 0 1 1 1 1 1 2 2 2 3 5 5 3 3 2 3 1 0 2 3 3 4 3 3 3 3 5 6 7 5 6 8 7 8 8 7 8 8 9 6 7 8
10 9 8 8 9 9 10 9 9 9 7 7 6 6 5 5 5 5 6 5 5 5 5 4 5 4 4 5 4 5 4 5 5 4 3 4 2 2 2 3 2 2 1 1 0 1 1 1 1 2 2 3 3 4 3 4 3 2 1 3 2 2 3 3 5 4 3 4 4 6 8 8 6 6 8 10 10 11 9 9 9 11 10 8 11
10 10 9 9 8 9 10 11 10 9 8 7 6 6 6 6 6 6 6 5 6 5 4 5 5 5 5 4 5 5 6 6 5 4 4 5 4 2 2 3 3 1 2 3 3 1 3 2 2 2 3 3 3 4 2 4 5 4 3 3 2 3 3 3 5 5 5 4 5 5 8 8 9 7 8 10 12 12 12 11 12 13 12 12 12
9 9 8 8 8 9 10 10 10 9 8 8 7 7 6 6 6 5 5 6 6 5 5 5 5 5 5 5 5 5 5 5 5 5 4 5 4 3 4 3 3 3 3 4 2 3 2 3 4 4 4 3 4 2 1 4 4 5 3 3 4 2 4 3 3 5 4 5 6 5 5 9 10 9 8 10 12 14 14 14 14 14 14 17 16
10 10 8 7 7 10 10 10 10 9 9 9 8 8 7 7 6 5 6 6 5 6 5 5 5 5 4 4 5 5 5 5 5 5 5 5 5 5 4 3 5 3 4 4 4 4 5 3 2 2 2 1 3 3 2 2 4 5 5 4 3 4 4 3 4 4 5 5 5 5 6 6 9 11 11 10 11 13 15 16 16 16 17 16 16
8 9 9 8 10 10 10 10 9 9 10 11 9 8 7 7 6 7 6 6 6 5 6 6 6 5 5 5 5 5 5 6 6 6 6 5 5 4 4 5 5 5 5 4 4 3 2 3 3 0 1 1 2 4 2 2 3 5 4 5 4 5 4 3 4 4 5 5 5 5 5 6 6 9 11 11 11 12 14 16 17 17 18 18 18
9 7 8 10 9 7 8 8 9 10 11 9 9 8 8 7 7 6 6 6 5 6 6 5 6 5 5 5 5 5 5 5 5 5 5 5 4 4 4 5 5 4 4 3 5 3 4 3 4 1 3 2 4 4 3 5 4 3 5 5 4 5 5 6 5 5 5 5 5 5 6 6 6 6 6 10 12 11 13 15 16 18 19 19 19
7 8 12 12 9 8 8 7 9 10 10 10 10 9 7 8 7 7 6 6 6 6 6 5 5 6 5 5 5 5 5 5 5 6 5 5 5 4 5 5 3 3 4 4 4 3 3 5 3 5 4 3 3 4 3 5 5 6 6 4 5 4 4 5 5 5 6 6 5 5 5 5 6 6 6 6 8 11 12 13 15 17 18 19 21
11 11 10 8 10 9 9 9 9 11 11 11 9 9 8 8 7 7 6 6 6 6 6 6 6 5 6 6 5 5 5 5 4 4 5 5 5 5 5 3 3 2 3 3 3 5 5 4 4 4 4 6 4 5 3 5 5 6 5 5 5 4 5 5 6 6 6 5 6 6 6 6 6 6 6 6 6 7 11 11 13 14 16 17 20
11 9 11 10 10 10 10 11 12 12 11 10 9 8 8 7 7 7 8 7 7 7 6 6 5 5 5 6 5 6 5 5 5 5 5 5 5 5 5 5 4 4 4 3 3 4 3 4 4 4 3 5 3 4 5 4 5 5 5 6 6 5 5 6 6 6 5 6 7 7 6 6 6 6 6 6 6 5 7 11 10 13 14 16 18
10 10 10 12 12 10 10 11 10 11 11 11 10 9 8 8 7 7 6 8 7 6 6 6 6 6 5 6 5 6 5 5 5 5 5 5 5 5 4 4 4 4 4 4 5 2 3 3 5 3 3 2 4 5 6 5 4 5 5 6 7 5 6 6 5 5 6 7 7 8 7 5 6 6 6 6 5 5 5 8 11 12 13 12 15
9 11 10 10 9 9 9 11 11 11 10 10 9 8 7 6 6 6 6 7 6 5 6 6 6 6 6 6 6 5 5 5 6 6 5 5 4 4 3 3 3 4 4 4 4 2 2 3 4 6 3 3 3 4 5 4 5 5 6 7 6 6 6 6 6 6 6 7 8 7 3 6 5 6 6 6 5 5 6 6 6 6 8 12 12
10 10 10 9 10 9 9 9 10 10 9 8 8 7 6 7 7 4 5 6 5 5 5 6 6 6 6 6 6 6 5 5 5 6 6 5 5 6 6 5 4 4 4 4 5 5 5 5 6 5 4 4 4 5 4 5 4 4 8 8 7 6 7 7 5 7 7 7 7 3 5 5 5 7 6 6 6 6 7 7 6 6 6 9 12
10 10 11 11 12 12 11 13 11 10 9 9 8 9 9 7 6 9 9 6 6 5 6 5 6 6 6 7 7 6 6 5 5 5 6 5 5 4 3 4 4 5 5 6 7 6 6 5 4 4 6 5 3 4 2 0 3 6 6 7 7 4 7 7 8 7 6 6 4 4 6 6 7 7 7 6 6 7 7 7 7 6 6 6 8
11 11 13 14 13 13 13 12 9 10 11 11 10 9 9 10 9 8 5 5 5 7 7 5 6 5 5 6 6 6 7 6 5 5 6 6 5 5 3 4 3 4 5 4 3 3 3 4 4 4 2 4 4 3 3 2 2 4 6 6 5 7 7 4 6 6 5 5 6 5 6 6 8 7 6 5 6 6 7 8 6 6 6 7 7
12 13 13 12 13 12 11 10 10 11 11 11 10 10 8 7 8 5 8 3 3 5 5 5 6 6 6 5 5 5 7 7 7 6 6 6 6 6 6 6 6 6 3 5 6 6 6 8 6 6 4 2 4 1 3 5 5 0 1 2 5 7 3 2 2 4 5 6 5 5 5 5 8 6 5 5 6 7 7 5 5 6 7 7 7
11 10 11 13 11 11 11 11 11 11 11 11 11 9 8 6 5 4 5 6 5 4 4 3 4 4 6 5 5 5 4 5 6 7 6 6 6 5 4 3 3 4 7 5 4 7 7 6 4 5 5 5 3 4 4 6 6 2 4 2 2 1 9 4 3 5 3 3 3 5 4 5 4 5 4 6 7 5 5 5 6 7 7 7 7
13 13 13 13 10 12 12 13 12 12 11 10 11 7 5 4 3 3 3 2 2 3 3 5 5 4 4 5 6 5 5 5 5 5 5 6 6 6 6 6 6 5 4 5 6 8 7 7 7 7 6 7 6 3 2 4 5 5 5 3 3 0 4 5 4 7 1 1 3 4 5 4 5 5 4 6 5 5 6 7 7 6 7 7 7
13 13 12 12 11 11 11 11 10 10 11 10 10 8 8 9 7 7 7 7 8 7 9 8 5 6 7 3 3 5 5 5 5 5 6 6 6 6 7 6 6 5 5 6 7 4 5 7 8 6 6 6 7 4 3 1 2 3 5 4 4 5 5 2 4 4 2 2 6 4 6 4 3 4 5 6 7 6 6 7 6 7 7 7 7
14 10 11 11 12 12 12 12 11 10 10 9 10 9 8 8 11 12 10 10 9 7 2 3 5 5 4 5 5 4 5 6 6 6 6 6 6 5 7 7 6 6 5 5 6 6 5 5 4 5 7 6 3 5 9 3 1 3 5 7 5 5 2 3 4 4 9 1 1 2 4 6 6 4 4 6 7 6 7 7 7 8 7 7 7
12 9 11 9 12 13 11 11 10 10 9 8 9 10 11 10 9 9 9 9 10 9 5 5 4 4 6 6 5 4 5 6 6 6 6 7 7 7 4 3 4 5 4 4 5 5 4 2 1 2 2 2 4 6 6 2 3 2 3 5 5 5 5 4 5 7 8 9 5 3 3 8 4 6 6 8 8 7 7 7 7 7 6 7 7
10 12 12 12 11 10 10 10 11 9 7 9 10 10 10 11 10 9 8 7 7 6 5 4 5 4 5 4 4 5 4 4 4 5 5 5 5 6 7 5 4 3 2 2 2 1 1 2 2 2 3 3 4 5 3 5 4 5 1 2 2 5 4 4 3 2 4 5 11 3 5 1 2 5 6 6 8 8 7 7 7 7 6 7 7
10 9 8 7 8 8 9 10 10 9 8 9 10 11 11 9 9 9 11 8 5 4 5 5 4 4 5 5 5 4 4 4 1 1 2 2 4 3 2 2 3 3 3 1 1 1 1 2 2 3 3 3 3 4 5 4 2 3 3 2 2 2 2 2 1 2 3 5 9 9 7 8 10 3 4 4 6 7 8 7 7 6 6 6 7
6 6 7 8 7 9 10 11 11 8 9 10 11 11 10 10 10 10 11 9 7 7 6 4 3 3 5 4 4 3 1 2 2 2 3 4 4 5 5 5 4 3 3 3 2 1 1 1 2 2 2 3 3 3 4 3 3 2 3 2 3 3 4 2 4 3 2 3 6 8 8 6 8 12 2 2 5 7 8 7 6 7 7 7 6
Wind_Direction
190 129 165 125 129 135 144 114 108 108 105 101 103 100 98 98 104 101 94 93 91 89 89 87 87 90 89 85 84 85 83 82 80 78 75 76 79 81 80 81 79 78 77 77 75 74 73 72 72 74 75 76 74 71 70 71 71 71 70 69 67 67 65 63 63 64 64 67 69 70 71 73 74 73 72 69 66 64 62 62 57 52 51 52 54
145 153 147 130 139 136 142 125 107 107 112 111 106 105 108 105 90 85 99 99 96 95 97 98 94 90 89 87 84 86 88 87 84 83 85 85 82 79 79 82 83 81 80 80 77 74 74 73 73 75 76 75 74 72 73 73 73 71 69 66 66 66 65 64 62 63 61 63 64 65 68 69 69 71 69 68 66 63 61 61 61 58 57 57 54
122 123 122 136 143 140 138 118 115 116 115 113 109 104 101 104 106 106 101 100 100 95 92 99 102 91 86 90 92 86 83 85 87 87 87 83 83 83 85 83 83 84 83 81 77 75 74 72 73 75 75 74 73 74 75 74 73 72 70 67 66 65 64 64 63 62 56 54 54 54 52 63 69 70 70 67 64 59 56 57 57 57 56 57 57
118 111 83 101 100 148 136 113 101 115 120 115 111 108 113 108 99 107 104 100 100 92 92 93 97 97 95 89 86 83 80 80 81 81 82 84 85 84 82 79 84 87 84 84 80 77 74 72 75 77 77 77 76 77 76 75 75 74 71 70 68 66 65 66 63 60 58 56 55 56 40 35 59 70 70 69 66 62 59 57 56 55 55 56 57
115 114 101 78 67 119 112 109 121 122 120 116 109 109 114 113 104 104 107 102 94 94 91 91 87 87 92 94 87 90 92 89 87 86 85 86 86 85 85 85 79 82 88 84 82 78 75 76 79 79 80 79 79 79 79 79 77 76 74 72 70 66 65 62 61 61 60 57 49 49 42 36 38 71 71 69 67 63 61 60 58 59 56 55 56
124 122 103 90 86 94 108 118 128 123 123 118 115 119 115 106 106 108 104 99 96 95 91 87 92 91 89 91 96 92 92 92 95 94 90 82 81 84 84 85 89 89 91 88 81 80 80 80 83 84 82 82 82 80 81 81 81 78 77 74 72 70 69 66 62 59 59 53 45 43 36 31 28 57 72 73 69 65 62 57 57 58 59 58 56
128 125 114 112 125 144 116 120 124 126 126 124 123 121 113 108 108 102 106 108 104 98 93 88 89 89 89 88 95 95 96 91 84 83 86 88 85 85 88 88 88 90 91 90 84 81 80 81 84 86 86 83 81 82 82 82 81 79 77 75 73 72 68 64 60 57 53 46 45 39 36 37 31 37 62 63 64 63 59 56 59 61 61 57 58
119 123 126 129 138 141 110 124 131 135 135 127 124 115 110 109 99 114 106 98 101 99 96 92 93 103 105 103 97 93 87 90 94 93 90 92 92 90 86 86 88 91 93 91 87 84 83 81 83 87 87 84 82 84 84 84 83 81 78 77 76 72 67 61 55 51 48 47 43 38 38 33 34 34 66 63 59 56 56 57 57 55 55 61 63
131 132 129 132 148 127 108 116 135 137 134 118 120 125 122 113 110 99 100 94 95 105 104 98 97 94 90 93 94 96 90 89 86 85 88 88 89 89 87 87 92 95 96 96 93 89 85 80 83 90 88 85 84 84 85 84 83 81 80 79 77 72 67 59 52 46 41 38 33 39 42 36 34 38 62 62 62 62 62 58 47 54 58 55 57
137 132 132 136 142 130 129 127 132 138 146 120 110 125 119 117 126 117 106 109 109 101 101 105 104 104 100 94 98 99 95 95 88 86 88 88 88 86 86 89 91 96 99 96 93 91 89 89 89 85 85 85 85 85 85 85 83 82 83 82 78 73 66 59 53 46 45 38 35 27 35 42 31 50 67 64 61 57 51 50 76 58 58 61 59
137 138 137 139 148 141 133 133 127 136 140 125 118 125 124 121 119 111 114 119 116 108 107 114 111 99 100 101 98 97 96 94 94 95 96 97 95 95 98 98 98 102 104 102 97 93 86 82 81 83 84 84 85 86 86 86 86 86 85 82 77 71 65 59 54 50 47 44 41 31 25 35 34 56 68 68 66 62 55 62 72 65 64 64 59
139 138 142 147 152 140 138 124 136 138 142 135 122 127 129 129 123 118 118 129 115 111 111 109 108 110 106 101 102 103 98 96 94 93 91 93 92 94 95 94 95 96 101 100 94 90 88 83 82 83 86 86 86 86 88 88 88 89 87 84 79 71 65 61 59 55 52 47 44 38 28 22 43 62 65 64 69 67 63 47 55 60 58 61 62
142 143 146 149 141 144 139 131 136 140 141 138 126 130 132 129 125 123 125 128 118 116 117 114 106 104 105 107 109 102 103 104 101 99 98 99 101 100 100 98 98 99 100 101 97 92 87 82 80 83 88 89 87 87 87 87 88 88 87 85 80 73 66 60 59 57 51 47 41 35 36 34 47 71 68 69 64 58 51 52 52 53 53 50 43
145 148 147 142 147 146 140 132 135 143 141 139 132 123 122 127 130 130 131 131 123 123 121 118 109 105 115 120 111 109 110 106 101 100 102 103 104 101 98 99 100 100 101 102 100 98 92 83 82 85 86 87 86 86 86 87 88 90 88 82 74 69 61 59 55 57 53 46 40 35 25 29 146 69 76 59 49 52 52 51 48 48 52 52 52
148 150 145 141 147 143 142 136 119 129 138 141 138 135 132 131 133 136 138 134 127 125 119 114 112 113 124 122 118 115 111 104 102 100 101 102 100 100 99 100 102 103 104 105 100 97 92 83 80 84 85 83 80 81 85 86 90 91 89 81 73 68 68 66 55 50 53 47 37 38 33 9 50 62 59 54 59 53 56 72 83 66 56 56 56
149 146 140 139 141 148 137 138 122 121 132 138 142 138 135 134 134 139 133 127 133 137 123 121 101 96 89 106 118 115 110 108 108 108 106 109 106 103 106 107 107 105 106 107 104 101 96 79 78 79 84 81 76 75 79 86 90 92 89 83 78 72 76 80 64 55 59 58 45 34 1 2 70 80 74 52 54 64 47 59 53 51 52 48 53
148 145 142 144 145 144 145 132 128 115 115 132 141 133 127 131 133 129 132 129 118 104 122 125 104 102 102 93 90 93 104 98 86 81 92 105 107 108 113 114 115 115 111 112 111 105 87 79 76 78 81 81 77 75 77 84 88 90 85 82 77 71 73 75 69 51 49 41 27 11 353 10 105 65 56 58 52 41 53 30 57 50 63 77 58
149 148 148 149 147 147 142 136 127 116 109 119 132 132 128 129 127 113 106 110 108 100 97 102 102 102 101 101 101 103 101 97 87 79 73 79 82 87 97 112 113 114 113 111 110 101 80 76 75 77 80 78 77 73 74 83 91 92 93 90 84 78 75 72 69 45 43 31 11 355 4 25 55 60 45 51 63 55 50 84 78 89 47 51 67
147 149 151 153 153 147 148 142 135 127 123 124 133 136 128 128 124 113 118 119 117 114 116 113 113 111 104 104 103 103 107 103 100 91 82 79 76 76 89 104 114 114 114 113 114 100 81 72 68 69 69 69 70 68 67 75 89 96 91 84 88 85 75 71 68 55 47 30 1 8 326 307 36 39 72 66 64 56 45 12 51 60 4 44 66
149 153 160 161 160 154 147 152 145 142 137 134 137 138 137 134 127 127 127 127 125 123 123 121 121 117 115 111 110 105 102 104 103 99 98 94 91 95 97 105 118 121 123 124 119 101 87 75 70 66 60 53 51 56 59 68 81 90 91 96 94 88 84 89 88 65 42 9 359 358 320 301 70 60 83 71 57 71 23 56 48 56 15 65 57
153 163 166 166 166 166 165 159 160 152 144 136 133 141 150 137 131 135 134 134 133 131 126 123 122 122 119 120 114 114 115 112 105 112 111 108 108 104 102 100 117 126 128 130 123 107 91 73 60 52 50 45 36 41 44 51 62 78 94 93 95 87 106 103 101 106 68 15 8 300 348 3 350 32 74 55 56 52 2 51 38 31 44 50 41
171 172 177 169 167 177 180 168 162 164 152 140 137 142 150 146 140 139 137 137 134 129 129 134 132 132 129 125 124 129 125 123 125 122 122 122 115 115 110 108 95 90 115 135 137 123 97 89 67 49 46 37 33 32 32 41 41 53 90 102 89 108 103 119 114 108 87 359 2 7 7 349 24 65 101 69 47 43 22 10 53 81 48 47 34
181 176 181 187 180 173 179 182 177 166 157 150 149 154 159 158 150 149 144 144 148 140 143 138 141 144 144 135 135 137 139 137 139 142 139 138 134 126 124 119 116 109 103 99 132 133 128 94 57 40 39 34 28 20 30 37 32 27 48 87 123 134 131 119 129 120 270 302 10 352 321 33 45 12 43 51 50 28 40 58 17 3 34 329 35
183 183 180 184 175 177 189 190 181 174 167 162 152 158 163 175 162 156 152 156 155 154 152 153 153 153 147 142 137 140 140 141 142 136 129 125 130 129 125 120 117 113 105 83 57 58 57 45 41 35 30 23 13 16 16 13 31 33 39 75 145 182 174 190 190 217 279 291 300 300 304 335 16 15 63 122 70 21 15 45 328 324 308 327 54
183 172 177 184 187 188 184 192 188 178 175 174 166 168 168 170 173 166 165 166 168 167 168 166 164 159 153 145 139 131 130 130 130 126 126 128 124 120 117 113 106 98 91 88 60 37 37 26 9 17 28 11 2 352 6 347 346 20 19 93 157 270 256 235 225 226 253 284 286 289 302 313 239 177 289 43 313 132 270 299 334 323 264 186 140
169 182 187 184 188 188 185 180 185 187 186 183 187 175 170 177 178 181 173 181 178 178 176 178 176 174 167 150 131 123 118 129 142 143 143 142 141 150 151 118 105 141 40 101 41 23 14 27 17 352 341 354 345 332 338 321 312 340 356 231 171 214 263 267 248 236 251 267 278 275 279 297 301 311 314 299 290 277 204 262 242 256 263 294 270
181 192 187 187 185 187 187 177 185 186 190 186 181 180 192 188 176 177 176 190 187 183 190 188 189 179 176 160 147 149 147 152 167 168 171 169 166 179 179 174 162 179 283 136 231 345 10 359 5 334 343 345 330 323 327 325 331 338 340 320 200 197 242 256 252 241 250 255 265 266 268 282 295 309 304 289 254 293 239 259 251 249 256 265 266
184 188 188 187 185 189 185 181 186 187 186 184 189 195 196 190 189 178 193 188 183 198 198 196 187 187 181 177 165 163 163 167 187 187 200 181 193 197 175 180 210 235 280 71 197 300 330 357 345 331 334 334 312 308 328 331 348 9 352 353 8 272 235 251 256 253 255 264 260 263 263 268 277 284 285 260 263 279 273 217 240 262 262 255 265
190 191 189 188 190 187 182 187 185 189 187 180 192 195 195 195 189 189 196 188 196 203 199 191 196 190 187 182 171 168 175 177 181 200 172 202 202 194 183 205 206 230 159 259 242 248 278 284 296 292 318 308 313 302 319 311 322 331 345 324 322 299 269 252 253 259 260 254 263 263 265 267 269 271 275 271 270 277 281 274 253 257 274 256 249
195 188 184 194 189 186 185 189 188 187 185 179 192 191 196 198 199 198 197 185 203 203 193 197 206 187 193 187 188 178 181 182 188 185 177 205 201 198 203 214 214 203 179 224 240 230 251 266 282 282 284 287 301 276 303 297 304 309 321 302 282 258 241 243 243 240 244 253 256 263 270 270 269 264 265 269 267 266 278 281 274 263 263 265 269
188 194 192 193 189 186 191 189 189 186 183 186 184 196 192 203 204 200 192 200 199 198 204 201 200 204 197 184 186 187 181 184 182 184 196 199 196 188 212 209 233 222 198 228 207 218 242 235 227 237 248 259 256 276 287 282 288 303 289 290 281 286 269 253 257 260 253 245 249 254 263 270 269 269 268 266 266 269 275 278 281 281 272 264 268
193 197 192 185 184 193 192 192 188 185 186 191 187 191 196 202 200 196 204 203 193 201 205 205 207 207 194 191 188 188 184 186 182 183 189 191 198 199 204 198 226 215 200 218 216 216 220 245 256 257 261 279 287 302 297 286 291 291 303 290 293 296 278 257 250 248 251 254 251 253 255 260 268 267 268 269 269 270 271 275 280 285 286 287 284
201 193 192 185 190 192 193 194 189 187 191 193 191 192 193 195 194 201 204 196 199 198 203 208 210 206 196 195 194 188 189 183 190 186 186 191 197 202 209 214 221 216 206 212 208 212 231 250 263 223 303 310 318 291 309 293 280 281 297 288 304 292 280 278 255 261 252 249 248 249 252 255 258 269 270 268 271 270 270 271 273 278 281 283 285
193 194 190 200 193 189 191 189 192 191 195 196 192 191 192 193 195 199 201 196 201 200 209 207 207 209 199 198 197 193 192 195 182 191 182 187 193 202 213 232 230 218 209 193 202 194 217 232 244 276 269 269 265 273 305 294 275 275 273 268 285 272 297 297 277 261 265 262 257 256 254 256 257 261 266 271 269 270 272 272 273 273 275 279 282
193 196 200 199 193 192 186 193 191 195 195 199 196 197 191 191 192 196 199 197 200 205 208 207 203 208 199 203 197 195 197 192 190 182 190 186 189 202 208 229 220 202 198 205 194 195 204 227 222 239 261 268 249 256 249 258 274 279 271 286 279 289 291 273 288 285 278 272 271 263 261 261 263 262 262 264 272 271 270 274 275 277 277 279 281
202 201 202 195 200 197 189 193 188 197 198 200 198 197 194 193 193 196 196 197 200 204 205 205 203 200 200 203 199 196 195 194 185 180 184 192 192 199 216 215 196 176 218 193 180 204 217 234 233 216 252 261 257 272 230 257 267 279 284 287 275 279 280 279 273 274 267 278 272 268 258 255 257 253 256 261 263 266 274 278 280 281 284 286 284
206 199 199 198 201 199 193 195 192 197 198 200 200 199 194 195 195 196 199 195 201 205 204 200 199 196 199 203 198 196 195 189 186 183 174 185 193 203 216 205 182 185 195 210 218 216 185 236 247 220 229 269 283 279 285 263 273 270 278 281 274 267 266 263 263 258 275 264 265 261 260 257 251 255 257 257 259 267 277 279 283 285 288 289 289
211 207 203 199 201 196 196 198 195 196 196 197 197 196 197 194 194 196 196 200 205 203 201 193 199 199 192 200 196 197 197 190 187 186 187 185 185 191 204 205 189 192 205 193 218 227 276 235 235 243 208 230 272 266 275 274 270 280 284 277 275 264 260 265 271 279 268 270 261 256 255 261 264 261 259 258 263 274 274 279 282 286 285 284 285
209 210 206 207 204 201 197 200 197 195 198 194 192 193 190 195 193 191 197 205 205 204 197 200 200 196 197 197 190 193 197 193 192 188 189 177 171 182 189 208 195 195 197 208 235 244 229 254 241 252 226 240 249 247 253 279 290 289 283 274 278 271 273 269 266 262 259 253 261 264 279 261 268 271 271 269 272 265 268 264 265 268 272 274 278
208 207 207 204 206 205 202 202 203 197 193 190 183 188 184 188 194 203 216 212 203 198 204 206 199 202 199 195 193 189 192 198 198 196 198 186 191 183 195 188 192 195 204 210 225 222 227 234 241 243 265 257 236 251 251 263 288 298 286 284 268 273 271 259 258 248 251 253 256 280 267 280 274 271 267 270 274 269 268 269 266 267 271 275 276
208 205 205 206 204 203 196 205 202 194 188 190 191 188 191 195 205 203 206 193 197 194 204 206 206 207 200 197 197 190 187 197 206 201 207 202 207 205 202 212 191 190 208 219 221 223 224 219 234 214 233 257 283 234 274 70 313 295 273 271 293 267 263 263 251 252 252 264 272 261 260 271 263 262 263 268 268 270 274 278 278 276 272 273 276
212 203 205 207 205 203 201 203 194 194 197 197 194 195 196 197 191 203 192 182 185 195 206 206 208 207 206 203 203 193 182 186 202 210 213 209 210 202 190 218 210 216 211 227 244 244 232 232 230 264 198 214 251 224 201 115 274 243 299 317 306 285 267 249 252 258 260 259 250 239 251 251 266 261 273 276 276 275 270 265 272 278 276 277 275
207 205 208 206 207 205 205 200 196 193 201 199 193 200 200 199 191 185 182 186 202 197 196 195 194 202 209 208 204 210 195 191 198 206 213 214 215 208 201 205 211 208 213 225 217 221 219 226 215 219 250 226 243 260 186 181 250 147 203 337 305 339 332 324 319 273 249 254 253 256 256 262 260 274 282 280 267 262 261 279 282 273 273 269 270
208 209 209 208 206 206 201 200 199 198 199 199 197 202 197 190 187 167 179 175 181 183 189 190 193 204 218 212 216 206 212 206 198 199 205 210 209 211 222 236 239 211 218 223 214 232 230 238 224 227 225 260 214 260 192 199 207 176 303 207 250 90 312 322 320 284 226 267 270 265 277 264 277 277 272 269 271 285 293 296 269 265 263 264 266
206 208 206 205 204 203 202 200 200 200 201 195 194 183 152 139 118 71 91 104 49 124 176 214 199 202 210 210 214 201 204 206 203 204 203 210 207 210 209 218 223 221 200 218 229 231 227 227 216 215 200 218 257 244 262 207 216 209 209 289 312 358 224 271 331 290 22 301 271 257 263 257 273 281 289 280 285 278 277 276 266 262 262 264 264
210 210 205 206 202 201 201 202 203 200 201 196 189 173 176 170 162 170 183 197 208 196 209 208 186 202 213 200 203 204 205 205 203 207 209 214 218 219 220 219 218 212 202 221 236 246 236 225 218 205 214 214 228 258 271 215 233 239 252 240 207 259 295 278 3 302 325 212 256 275 285 280 250 271 280 282 280 281 268 267 273 276 275 271 272
214 202 204 204 203 203 199 198 200 201 199 193 180 175 180 182 186 193 198 202 213 225 191 167 194 209 195 199 211 205 205 203 208 207 212 213 219 220 221 216 213 217 217 225 237 240 246 241 212 197 217 210 172 240 252 221 70 241 227 240 265 270 246 297 269 302 301 286 301 266 295 292 290 272 262 266 279 282 274 272 277 275 279 276 274
204 196 204 199 203 203 195 196 199 200 195 183 179 182 186 188 192 200 200 203 208 212 180 201 200 183 190 210 205 204 205 207 209 210 213 212 213 220 220 222 222 224 216 227 231 239 249 268 201 219 244 202 213 228 260 188 210 256 186 238 254 271 273 262 255 266 286 298 292 276 244 273 288 290 299 299 286 271 272 273 274 272 265 270 266
197 200 200 200 200 199 198 196 199 195 188 178 179 187 191 188 192 192 201 213 201 198 177 169 179 181 192 210 197 207 200 207 211 211 217 212 199 213 218 213 210 214 203 229 262 277 209 227 207 184 204 217 203 225 233 246 218 251 209 273 225 252 268 244 265 225 265 302 295 283 303 300 293 276 276 259 279 284 271 267 266 272 275 269 267
203 203 201 192 194 190 195 192 200 191 185 180 180 186 188 182 189 194 201 200 180 174 161 187 186 177 194 203 197 183 189 192 176 148 169 196 194 193 168 142 109 100 109 168 160 164 197 219 224 202 198 199 200 203 217 248 226 233 220 236 235 294 303 319 265 261 264 230 276 307 310 315 314 289 264 266 262 277 283 279 276 277 274 269 273
204 193 196 194 187 189 192 196 200 187 183 183 179 186 185 186 193 195 198 192 184 175 180 198 173 165 187 193 177 152 103 114 120 88 111 122 115 116 118 112 122 149 136 118 124 128 155 192 206 179 173 188 206 206 222 236 247 265 285 256 262 254 266 276 295 292 283 302 308 300 312 317 309 315 286 283 302 284 281 276 279 288 283 282 273